"Time","Value","Approval","myLocation"
"2023-05-06 00:00",7.17343898961264,"Approved","OW481"
"2023-05-06 01:00",7.17320171428096,"Approved","OW481"
"2023-05-06 02:00",7.17276443894927,"Approved","OW481"
"2023-05-06 03:00",7.17162716361758,"Approved","OW481"
"2023-05-06 04:00",7.17118988828589,"Approved","OW481"
"2023-05-06 05:00",7.17035261295421,"Approved","OW481"
"2023-05-06 06:00",7.16971533762252,"Approved","OW481"
"2023-05-06 07:00",7.16877806229083,"Approved","OW481"
"2023-05-06 08:00",7.16854078695914,"Approved","OW481"
"2023-05-06 09:00",7.16780351162746,"Approved","OW481"
"2023-05-06 10:00",7.16696623629577,"Approved","OW481"
"2023-05-06 11:00",7.16672896096408,"Approved","OW481"
"2023-05-06 12:00",7.1652916856324,"Approved","OW481"
"2023-05-06 13:00",7.16605441030071,"Approved","OW481"
"2023-05-06 14:00",7.16561713496902,"Approved","OW481"
"2023-05-06 15:00",7.16427985963733,"Approved","OW481"
"2023-05-06 16:00",7.16314258430565,"Approved","OW481"
"2023-05-06 17:00",7.16290530897396,"Approved","OW481"
"2023-05-06 18:00",7.16266803364227,"Approved","OW481"
"2023-05-06 19:00",7.16193075831058,"Approved","OW481"
"2023-05-06 20:00",7.1613934829789,"Approved","OW481"
"2023-05-06 21:00",7.16145620764721,"Approved","OW481"
"2023-05-06 22:00",7.16101893231552,"Approved","OW481"
"2023-05-06 23:00",7.16058165698383,"Approved","OW481"
"2023-05-07 00:00",7.16024438165215,"Approved","OW481"
"2023-05-07 01:00",7.16010710632046,"Approved","OW481"
"2023-05-07 02:00",7.15906983098877,"Approved","OW481"
"2023-05-07 03:00",7.15863255565708,"Approved","OW481"
"2023-05-07 04:00",7.1579952803254,"Approved","OW481"
"2023-05-07 05:00",7.15775800499371,"Approved","OW481"
"2023-05-07 06:00",7.15702072966202,"Approved","OW481"
"2023-05-07 07:00",7.15648345433034,"Approved","OW481"
"2023-05-07 08:00",7.15534617899865,"Approved","OW481"
"2023-05-07 09:00",7.15460890366696,"Approved","OW481"
"2023-05-07 10:00",7.15427162833527,"Approved","OW481"
"2023-05-07 11:00",7.15433435300359,"Approved","OW481"
"2023-05-07 12:00",7.1538970776719,"Approved","OW481"
"2023-05-07 13:00",7.15335980234021,"Approved","OW481"
"2023-05-07 14:00",7.15262252700852,"Approved","OW481"
"2023-05-07 15:00",7.15208525167684,"Approved","OW481"
"2023-05-07 16:00",7.15164797634515,"Approved","OW481"
"2023-05-07 17:00",7.15111070101346,"Approved","OW481"
"2023-05-07 18:00",7.15097342568177,"Approved","OW481"
"2023-05-07 19:00",7.15013615035009,"Approved","OW481"
"2023-05-07 20:00",7.1498988750184,"Approved","OW481"
"2023-05-07 21:00",7.14986159968671,"Approved","OW481"
"2023-05-07 22:00",7.14922432435503,"Approved","OW481"
"2023-05-07 23:00",7.14888704902334,"Approved","OW481"
"2023-05-08 00:00",7.14854977369165,"Approved","OW481"
"2023-05-08 01:00",7.14811249835996,"Approved","OW481"
"2023-05-08 02:00",7.14667522302828,"Approved","OW481"
"2023-05-08 03:00",7.14623794769659,"Approved","OW481"
"2023-05-08 04:00",7.1453006723649,"Approved","OW481"
"2023-05-08 05:00",7.14496339703321,"Approved","OW481"
"2023-05-08 06:00",7.14382612170153,"Approved","OW481"
"2023-05-08 07:00",7.14318884636984,"Approved","OW481"
"2023-05-08 08:00",7.14295157103815,"Approved","OW481"
"2023-05-08 09:00",7.14191429570646,"Approved","OW481"
"2023-05-08 10:00",7.14107702037478,"Approved","OW481"
"2023-05-08 11:00",7.14123974504309,"Approved","OW481"
"2023-05-08 12:00",7.1402024697114,"Approved","OW481"
"2023-05-08 13:00",7.14026519437972,"Approved","OW481"
"2023-05-08 14:00",7.14052791904803,"Approved","OW481"
"2023-05-08 15:00",7.13999064371634,"Approved","OW481"
"2023-05-08 16:00",7.13975336838465,"Approved","OW481"
"2023-05-08 17:00",7.13871609305297,"Approved","OW481"
"2023-05-08 18:00",7.13887881772128,"Approved","OW481"
"2023-05-08 19:00",7.13844154238959,"Approved","OW481"
"2023-05-08 20:00",7.1380042670579,"Approved","OW481"
"2023-05-08 21:00",7.13796699172622,"Approved","OW481"
"2023-05-08 22:00",7.13772971639453,"Approved","OW481"
"2023-05-08 23:00",7.13689244106284,"Approved","OW481"
"2023-05-09 00:00",7.13705516573116,"Approved","OW481"
"2023-05-09 01:00",7.13671789039947,"Approved","OW481"
"2023-05-09 02:00",7.13468061506778,"Approved","OW481"
"2023-05-09 03:00",7.13414333973609,"Approved","OW481"
"2023-05-09 04:00",7.13270606440441,"Approved","OW481"
"2023-05-09 05:00",7.13256878907272,"Approved","OW481"
"2023-05-09 06:00",7.13273151374103,"Approved","OW481"
"2023-05-09 07:00",7.13179423840934,"Approved","OW481"
"2023-05-09 08:00",7.13155696307766,"Approved","OW481"
"2023-05-09 09:00",7.13041968774597,"Approved","OW481"
"2023-05-09 10:00",7.13058241241428,"Approved","OW481"
"2023-05-09 11:00",7.13144513708259,"Approved","OW481"
"2023-05-09 12:00",7.13140786175091,"Approved","OW481"
"2023-05-09 13:00",7.13007058641922,"Approved","OW481"
"2023-05-09 14:00",7.13083331108753,"Approved","OW481"
"2023-05-09 15:00",7.12859603575585,"Approved","OW481"
"2023-05-09 16:00",7.12865876042416,"Approved","OW481"
"2023-05-09 17:00",7.12862148509247,"Approved","OW481"
"2023-05-09 18:00",7.12808420976078,"Approved","OW481"
"2023-05-09 19:00",7.1277469344291,"Approved","OW481"
"2023-05-09 20:00",7.12760965909741,"Approved","OW481"
"2023-05-09 21:00",7.12757238376572,"Approved","OW481"
"2023-05-09 22:00",7.12723510843403,"Approved","OW481"
"2023-05-09 23:00",7.12639783310235,"Approved","OW481"
"2023-05-10 00:00",7.12626055777066,"Approved","OW481"
"2023-05-10 01:00",7.12572328243897,"Approved","OW481"
"2023-05-10 02:00",7.12378600710728,"Approved","OW481"
"2023-05-10 03:00",7.1239487317756,"Approved","OW481"
"2023-05-10 04:00",7.12261145644391,"Approved","OW481"
"2023-05-10 05:00",7.12277418111222,"Approved","OW481"
"2023-05-10 06:00",7.12223690578054,"Approved","OW481"
"2023-05-10 07:00",7.12189963044885,"Approved","OW481"
"2023-05-10 08:00",7.12136235511716,"Approved","OW481"
"2023-05-10 09:00",7.12062507978547,"Approved","OW481"
"2023-05-10 10:00",7.12108780445379,"Approved","OW481"
"2023-05-10 11:00",7.1220505291221,"Approved","OW481"
"2023-05-10 12:00",7.12091325379041,"Approved","OW481"
"2023-05-10 13:00",7.11937597845872,"Approved","OW481"
"2023-05-10 14:00",7.12043870312704,"Approved","OW481"
"2023-05-10 15:00",7.11880142779535,"Approved","OW481"
"2023-05-10 16:00",7.11836415246366,"Approved","OW481"
"2023-05-10 17:00",7.11832687713197,"Approved","OW481"
"2023-05-10 18:00",7.11778960180029,"Approved","OW481"
"2023-05-10 19:00",7.1175523264686,"Approved","OW481"
"2023-05-10 20:00",7.11741505113691,"Approved","OW481"
"2023-05-10 21:00",7.11707777580523,"Approved","OW481"
"2023-05-10 22:00",7.11654050047354,"Approved","OW481"
"2023-05-10 23:00",7.11650322514185,"Approved","OW481"
"2023-05-11 00:00",7.11646594981016,"Approved","OW481"
"2023-05-11 01:00",7.11582867447848,"Approved","OW481"
"2023-05-11 02:00",7.11449139914679,"Approved","OW481"
"2023-05-11 03:00",7.1142541238151,"Approved","OW481"
"2023-05-11 04:00",7.11231684848341,"Approved","OW481"
"2023-05-11 05:00",7.11287957315173,"Approved","OW481"
"2023-05-11 06:00",7.11254229782004,"Approved","OW481"
"2023-05-11 07:00",7.11160502248835,"Approved","OW481"
"2023-05-11 08:00",7.11146774715666,"Approved","OW481"
"2023-05-11 09:00",7.11053047182498,"Approved","OW481"
"2023-05-11 10:00",7.11039319649329,"Approved","OW481"
"2023-05-11 11:00",7.1110559211616,"Approved","OW481"
"2023-05-11 12:00",7.11081864582991,"Approved","OW481"
"2023-05-11 13:00",7.11048137049823,"Approved","OW481"
"2023-05-11 14:00",7.10984409516654,"Approved","OW481"
"2023-05-11 15:00",7.10930681983485,"Approved","OW481"
"2023-05-11 16:00",7.10876954450317,"Approved","OW481"
"2023-05-11 17:00",7.10883226917148,"Approved","OW481"
"2023-05-11 18:00",7.10899499383979,"Approved","OW481"
"2023-05-11 19:00",7.1085577185081,"Approved","OW481"
"2023-05-11 20:00",7.10862044317642,"Approved","OW481"
"2023-05-11 21:00",7.10838316784473,"Approved","OW481"
"2023-05-11 22:00",7.10814589251304,"Approved","OW481"
"2023-05-11 23:00",7.10810861718135,"Approved","OW481"
"2023-05-12 00:00",7.10777134184967,"Approved","OW481"
"2023-05-12 01:00",7.10743406651798,"Approved","OW481"
"2023-05-12 02:00",7.10639679118629,"Approved","OW481"
"2023-05-12 03:00",7.10595951585461,"Approved","OW481"
"2023-05-12 04:00",7.10422224052292,"Approved","OW481"
"2023-05-12 05:00",7.10538496519123,"Approved","OW481"
"2023-05-12 06:00",7.10394768985954,"Approved","OW481"
"2023-05-12 07:00",7.10501041452786,"Approved","OW481"
"2023-05-12 08:00",7.10457313919617,"Approved","OW481"
"2023-05-12 09:00",7.10303586386448,"Approved","OW481"
"2023-05-12 10:00",7.10449858853279,"Approved","OW481"
"2023-05-12 11:00",7.10306131320111,"Approved","OW481"
"2023-05-12 12:00",7.10262403786942,"Approved","OW481"
"2023-05-12 13:00",7.10268676253773,"Approved","OW481"
"2023-05-12 14:00",7.10264948720604,"Approved","OW481"
"2023-05-12 15:00",7.10211221187436,"Approved","OW481"
"2023-05-12 16:00",7.10147493654267,"Approved","OW481"
"2023-05-12 17:00",7.10133766121098,"Approved","OW481"
"2023-05-12 18:00",7.10070038587929,"Approved","OW481"
"2023-05-12 19:00",7.10026311054761,"Approved","OW481"
"2023-05-12 20:00",7.09992583521592,"Approved","OW481"
"2023-05-12 21:00",7.09958855988423,"Approved","OW481"
"2023-05-12 22:00",7.09945128455255,"Approved","OW481"
"2023-05-12 23:00",7.09961400922086,"Approved","OW481"
"2023-05-13 00:00",7.09877673388917,"Approved","OW481"
"2023-05-13 01:00",7.09953945855748,"Approved","OW481"
"2023-05-13 02:00",7.0988021832258,"Approved","OW481"
"2023-05-13 03:00",7.09896490789411,"Approved","OW481"
"2023-05-13 04:00",7.09882763256242,"Approved","OW481"
"2023-05-13 05:00",7.09849035723073,"Approved","OW481"
"2023-05-13 06:00",7.09845308189905,"Approved","OW481"
"2023-05-13 07:00",7.09611580656736,"Approved","OW481"
"2023-05-13 08:00",7.09687853123567,"Approved","OW481"
"2023-05-13 09:00",7.09624125590399,"Approved","OW481"
"2023-05-13 10:00",7.0963039805723,"Approved","OW481"
"2023-05-13 11:00",7.09786670524061,"Approved","OW481"
"2023-05-13 12:00",7.09682942990892,"Approved","OW481"
"2023-05-13 13:00",7.09669215457724,"Approved","OW481"
"2023-05-13 14:00",7.09705487924555,"Approved","OW481"
"2023-05-13 15:00",7.09591760391386,"Approved","OW481"
"2023-05-13 16:00",7.09488032858217,"Approved","OW481"
"2023-05-13 17:00",7.09494305325049,"Approved","OW481"
"2023-05-13 18:00",7.0950057779188,"Approved","OW481"
"2023-05-13 19:00",7.09496850258711,"Approved","OW481"
"2023-05-13 20:00",7.09463122725542,"Approved","OW481"
"2023-05-13 21:00",7.09449395192374,"Approved","OW481"
"2023-05-13 22:00",7.09455667659205,"Approved","OW481"
"2023-05-13 23:00",7.09411940126036,"Approved","OW481"
"2023-05-14 00:00",7.09388212592868,"Approved","OW481"
"2023-05-14 01:00",7.09364485059699,"Approved","OW481"
"2023-05-14 02:00",7.0929075752653,"Approved","OW481"
"2023-05-14 03:00",7.09277029993361,"Approved","OW481"
"2023-05-14 04:00",7.09103302460193,"Approved","OW481"
"2023-05-14 05:00",7.09219574927024,"Approved","OW481"
"2023-05-14 06:00",7.09085847393855,"Approved","OW481"
"2023-05-14 07:00",7.09042119860686,"Approved","OW481"
"2023-05-14 08:00",7.09038392327518,"Approved","OW481"
"2023-05-14 09:00",7.08974664794349,"Approved","OW481"
"2023-05-14 10:00",7.0901093726118,"Approved","OW481"
"2023-05-14 11:00",7.09147209728011,"Approved","OW481"
"2023-05-14 12:00",7.09063482194843,"Approved","OW481"
"2023-05-14 13:00",7.09009754661674,"Approved","OW481"
"2023-05-14 14:00",7.09016027128505,"Approved","OW481"
"2023-05-14 15:00",7.08942299595337,"Approved","OW481"
"2023-05-14 16:00",7.08818572062168,"Approved","OW481"
"2023-05-14 17:00",7.08774844528999,"Approved","OW481"
"2023-05-14 18:00",7.0872111699583,"Approved","OW481"
"2023-05-14 19:00",7.08707389462662,"Approved","OW481"
"2023-05-14 20:00",7.08713661929493,"Approved","OW481"
"2023-05-14 21:00",7.08649934396324,"Approved","OW481"
"2023-05-14 22:00",7.08716206863155,"Approved","OW481"
"2023-05-14 23:00",7.08632479329987,"Approved","OW481"
"2023-05-15 00:00",7.08658751796818,"Approved","OW481"
"2023-05-15 01:00",7.08635024263649,"Approved","OW481"
"2023-05-15 02:00",7.0861129673048,"Approved","OW481"
"2023-05-15 03:00",7.08607569197312,"Approved","OW481"
"2023-05-15 04:00",7.08583841664143,"Approved","OW481"
"2023-05-15 05:00",7.08450114130974,"Approved","OW481"
"2023-05-15 06:00",7.08396386597806,"Approved","OW481"
"2023-05-15 07:00",7.08522659064637,"Approved","OW481"
"2023-05-15 08:00",7.08378931531468,"Approved","OW481"
"2023-05-15 09:00",7.08325203998299,"Approved","OW481"
"2023-05-15 10:00",7.08291476465131,"Approved","OW481"
"2023-05-15 11:00",7.08367748931962,"Approved","OW481"
"2023-05-15 12:00",7.08374021398793,"Approved","OW481"
"2023-05-15 13:00",7.08340293865624,"Approved","OW481"
"2023-05-15 14:00",7.08466566332456,"Approved","OW481"
"2023-05-15 15:00",7.08332838799287,"Approved","OW481"
"2023-05-15 16:00",7.08299111266118,"Approved","OW481"
"2023-05-15 17:00",7.0830538373295,"Approved","OW481"
"2023-05-15 18:00",7.08321656199781,"Approved","OW481"
"2023-05-15 19:00",7.08317928666612,"Approved","OW481"
"2023-05-15 20:00",7.08294201133443,"Approved","OW481"
"2023-05-15 21:00",7.08260473600274,"Approved","OW481"
"2023-05-15 22:00",7.08316746067106,"Approved","OW481"
"2023-05-15 23:00",7.08213018533937,"Approved","OW481"
"2023-05-16 00:00",7.08249291000768,"Approved","OW481"
"2023-05-16 01:00",7.082055634676,"Approved","OW481"
"2023-05-16 02:00",7.08001835934431,"Approved","OW481"
"2023-05-16 03:00",7.08058108401262,"Approved","OW481"
"2023-05-16 04:00",7.07854380868093,"Approved","OW481"
"2023-05-16 05:00",7.07910653334925,"Approved","OW481"
"2023-05-16 06:00",7.07806925801756,"Approved","OW481"
"2023-05-16 07:00",7.07833198268587,"Approved","OW481"
"2023-05-16 08:00",7.07809470735418,"Approved","OW481"
"2023-05-16 09:00",7.0770574320225,"Approved","OW481"
"2023-05-16 10:00",7.07732015669081,"Approved","OW481"
"2023-05-16 11:00",7.07888288135912,"Approved","OW481"
"2023-05-16 12:00",7.07824560602744,"Approved","OW481"
"2023-05-16 13:00",7.07740833069575,"Approved","OW481"
"2023-05-16 14:00",7.07757105536406,"Approved","OW481"
"2023-05-16 15:00",7.07653378003237,"Approved","OW481"
"2023-05-16 16:00",7.07559650470069,"Approved","OW481"
"2023-05-16 17:00",7.075759229369,"Approved","OW481"
"2023-05-16 18:00",7.07512195403731,"Approved","OW481"
"2023-05-16 19:00",7.07538467870562,"Approved","OW481"
"2023-05-16 20:00",7.07504740337394,"Approved","OW481"
"2023-05-16 21:00",7.07431012804225,"Approved","OW481"
"2023-05-16 22:00",7.07427285271056,"Approved","OW481"
"2023-05-16 23:00",7.07393557737888,"Approved","OW481"
"2023-05-17 00:00",7.07409830204719,"Approved","OW481"
"2023-05-17 01:00",7.0738610267155,"Approved","OW481"
"2023-05-17 02:00",7.07252375138381,"Approved","OW481"
"2023-05-17 03:00",7.07288647605213,"Approved","OW481"
"2023-05-17 04:00",7.07204920072044,"Approved","OW481"
"2023-05-17 05:00",7.07121192538875,"Approved","OW481"
"2023-05-17 06:00",7.07077465005706,"Approved","OW481"
"2023-05-17 07:00",7.07043737472538,"Approved","OW481"
"2023-05-17 08:00",7.06960009939369,"Approved","OW481"
"2023-05-17 09:00",7.068862824062,"Approved","OW481"
"2023-05-17 10:00",7.06932554873031,"Approved","OW481"
"2023-05-17 11:00",7.07068827339863,"Approved","OW481"
"2023-05-17 12:00",7.06945099806694,"Approved","OW481"
"2023-05-17 13:00",7.06901372273525,"Approved","OW481"
"2023-05-17 14:00",7.06817644740356,"Approved","OW481"
"2023-05-17 15:00",7.06773917207188,"Approved","OW481"
"2023-05-17 16:00",7.06660189674019,"Approved","OW481"
"2023-05-17 17:00",7.0661646214085,"Approved","OW481"
"2023-05-17 18:00",7.06572734607682,"Approved","OW481"
"2023-05-17 19:00",7.06589007074513,"Approved","OW481"
"2023-05-17 20:00",7.06515279541344,"Approved","OW481"
"2023-05-17 21:00",7.06481552008175,"Approved","OW481"
"2023-05-17 22:00",7.06437824475007,"Approved","OW481"
"2023-05-17 23:00",7.06444096941838,"Approved","OW481"
"2023-05-18 00:00",7.06470369408669,"Approved","OW481"
"2023-05-18 01:00",7.063766418755,"Approved","OW481"
"2023-05-18 02:00",7.06312914342332,"Approved","OW481"
"2023-05-18 03:00",7.06309186809163,"Approved","OW481"
"2023-05-18 04:00",7.06185459275994,"Approved","OW481"
"2023-05-18 05:00",7.06141731742825,"Approved","OW481"
"2023-05-18 06:00",7.06148004209657,"Approved","OW481"
"2023-05-18 07:00",7.06144276676488,"Approved","OW481"
"2023-05-18 08:00",7.06050549143319,"Approved","OW481"
"2023-05-18 09:00",7.05946821610151,"Approved","OW481"
"2023-05-18 10:00",7.05903094076982,"Approved","OW481"
"2023-05-18 11:00",7.05899366543813,"Approved","OW481"
"2023-05-18 12:00",7.05895639010644,"Approved","OW481"
"2023-05-18 13:00",7.05881911477476,"Approved","OW481"
"2023-05-18 14:00",7.05838183944307,"Approved","OW481"
"2023-05-18 15:00",7.05734456411138,"Approved","OW481"
"2023-05-18 16:00",7.05670728877969,"Approved","OW481"
"2023-05-18 17:00",7.05657001344801,"Approved","OW481"
"2023-05-18 18:00",7.05633273811632,"Approved","OW481"
"2023-05-18 19:00",7.05649546278463,"Approved","OW481"
"2023-05-18 20:00",7.05585818745294,"Approved","OW481"
"2023-05-18 21:00",7.05562091212126,"Approved","OW481"
"2023-05-18 22:00",7.05558363678957,"Approved","OW481"
"2023-05-18 23:00",7.05544636145788,"Approved","OW481"
"2023-05-19 00:00",7.0558090861262,"Approved","OW481"
"2023-05-19 01:00",7.05517181079451,"Approved","OW481"
"2023-05-19 02:00",7.05493453546282,"Approved","OW481"
"2023-05-19 03:00",7.05469726013113,"Approved","OW481"
"2023-05-19 04:00",7.05485998479945,"Approved","OW481"
"2023-05-19 05:00",7.05412270946776,"Approved","OW481"
"2023-05-19 06:00",7.05348543413607,"Approved","OW481"
"2023-05-19 07:00",7.05294815880438,"Approved","OW481"
"2023-05-19 08:00",7.0525108834727,"Approved","OW481"
"2023-05-19 09:00",7.05227360814101,"Approved","OW481"
"2023-05-19 10:00",7.05153633280932,"Approved","OW481"
"2023-05-19 11:00",7.05169905747763,"Approved","OW481"
"2023-05-19 12:00",7.05146178214595,"Approved","OW481"
"2023-05-19 13:00",7.05112450681426,"Approved","OW481"
"2023-05-19 14:00",7.05068723148257,"Approved","OW481"
"2023-05-19 15:00",7.04964995615089,"Approved","OW481"
"2023-05-19 16:00",7.0487126808192,"Approved","OW481"
"2023-05-19 17:00",7.04847540548751,"Approved","OW481"
"2023-05-19 18:00",7.04863813015582,"Approved","OW481"
"2023-05-19 19:00",7.04840085482414,"Approved","OW481"
"2023-05-19 20:00",7.04686357949245,"Approved","OW481"
"2023-05-19 21:00",7.04712630416076,"Approved","OW481"
"2023-05-19 22:00",7.04658902882907,"Approved","OW481"
"2023-05-19 23:00",7.04635175349739,"Approved","OW481"
"2023-05-20 00:00",7.0468144781657,"Approved","OW481"
"2023-05-20 01:00",7.04637720283401,"Approved","OW481"
"2023-05-20 02:00",7.04663992750233,"Approved","OW481"
"2023-05-20 03:00",7.04680265217064,"Approved","OW481"
"2023-05-20 04:00",7.04606537683895,"Approved","OW481"
"2023-05-20 05:00",7.04552810150726,"Approved","OW481"
"2023-05-20 06:00",7.04509082617558,"Approved","OW481"
"2023-05-20 07:00",7.04475355084389,"Approved","OW481"
"2023-05-20 08:00",7.0441162755122,"Approved","OW481"
"2023-05-20 09:00",7.04347900018051,"Approved","OW481"
"2023-05-20 10:00",7.04364172484883,"Approved","OW481"
"2023-05-20 11:00",7.04410444951714,"Approved","OW481"
"2023-05-20 12:00",7.04316717418545,"Approved","OW481"
"2023-05-20 13:00",7.04322989885376,"Approved","OW481"
"2023-05-20 14:00",7.04269262352208,"Approved","OW481"
"2023-05-20 15:00",7.04195534819039,"Approved","OW481"
"2023-05-20 16:00",7.0415180728587,"Approved","OW481"
"2023-05-20 17:00",7.04128079752701,"Approved","OW481"
"2023-05-20 18:00",7.04114352219533,"Approved","OW481"
"2023-05-20 19:00",7.04090624686364,"Approved","OW481"
"2023-05-20 20:00",7.04076897153195,"Approved","OW481"
"2023-05-20 21:00",7.04053169620027,"Approved","OW481"
"2023-05-20 22:00",7.04009442086858,"Approved","OW481"
"2023-05-20 23:00",7.03975714553689,"Approved","OW481"
"2023-05-21 00:00",7.0398198702052,"Approved","OW481"
"2023-05-21 01:00",7.03928259487352,"Approved","OW481"
"2023-05-21 02:00",7.03934531954183,"Approved","OW481"
"2023-05-21 03:00",7.03960804421014,"Approved","OW481"
"2023-05-21 04:00",7.03797076887845,"Approved","OW481"
"2023-05-21 05:00",7.03823349354677,"Approved","OW481"
"2023-05-21 06:00",7.03769621821508,"Approved","OW481"
"2023-05-21 07:00",7.03795894288339,"Approved","OW481"
"2023-05-21 08:00",7.0370216675517,"Approved","OW481"
"2023-05-21 09:00",7.03698439222002,"Approved","OW481"
"2023-05-21 10:00",7.03644711688833,"Approved","OW481"
"2023-05-21 11:00",7.03640984155664,"Approved","OW481"
"2023-05-21 12:00",7.03697256622496,"Approved","OW481"
"2023-05-21 13:00",7.03633529089327,"Approved","OW481"
"2023-05-21 14:00",7.03559801556158,"Approved","OW481"
"2023-05-21 15:00",7.03536074022989,"Approved","OW481"
"2023-05-21 16:00",7.03342346489821,"Approved","OW481"
"2023-05-21 17:00",7.03348618956652,"Approved","OW481"
"2023-05-21 18:00",7.03354891423483,"Approved","OW481"
"2023-05-21 19:00",7.03301163890314,"Approved","OW481"
"2023-05-21 20:00",7.03277436357146,"Approved","OW481"
"2023-05-21 21:00",7.03263708823977,"Approved","OW481"
"2023-05-21 22:00",7.03159981290808,"Approved","OW481"
"2023-05-21 23:00",7.03146253757639,"Approved","OW481"
"2023-05-22 00:00",7.03122526224471,"Approved","OW481"
"2023-05-22 01:00",7.03058798691302,"Approved","OW481"
"2023-05-22 02:00",7.03035071158133,"Approved","OW481"
"2023-05-22 03:00",7.03001343624965,"Approved","OW481"
"2023-05-22 04:00",7.02987616091796,"Approved","OW481"
"2023-05-22 05:00",7.03023888558627,"Approved","OW481"
"2023-05-22 06:00",7.03000161025458,"Approved","OW481"
"2023-05-22 07:00",7.0302643349229,"Approved","OW481"
"2023-05-22 08:00",7.02992705959121,"Approved","OW481"
"2023-05-22 09:00",7.02928978425952,"Approved","OW481"
"2023-05-22 10:00",7.02945250892783,"Approved","OW481"
"2023-05-22 11:00",7.02911523359615,"Approved","OW481"
"2023-05-22 12:00",7.02827795826446,"Approved","OW481"
"2023-05-22 13:00",7.02754068293277,"Approved","OW481"
"2023-05-22 14:00",7.02670340760108,"Approved","OW481"
"2023-05-22 15:00",7.0263661322694,"Approved","OW481"
"2023-05-22 16:00",7.02622885693771,"Approved","OW481"
"2023-05-22 17:00",7.02589158160602,"Approved","OW481"
"2023-05-22 18:00",7.02535430627434,"Approved","OW481"
"2023-05-22 19:00",7.02521703094265,"Approved","OW481"
"2023-05-22 20:00",7.02487975561096,"Approved","OW481"
"2023-05-22 21:00",7.02444248027927,"Approved","OW481"
"2023-05-22 22:00",7.02430520494759,"Approved","OW481"
"2023-05-22 23:00",7.0239679296159,"Approved","OW481"
"2023-05-23 00:00",7.02383065428421,"Approved","OW481"
"2023-05-23 01:00",7.02409337895252,"Approved","OW481"
"2023-05-23 02:00",7.02365610362084,"Approved","OW481"
"2023-05-23 03:00",7.02411882828915,"Approved","OW481"
"2023-05-23 04:00",7.02268155295746,"Approved","OW481"
"2023-05-23 05:00",7.02244427762577,"Approved","OW481"
"2023-05-23 06:00",7.02210700229409,"Approved","OW481"
"2023-05-23 07:00",7.0224697269624,"Approved","OW481"
"2023-05-23 08:00",7.02153245163071,"Approved","OW481"
"2023-05-23 09:00",7.02099517629903,"Approved","OW481"
"2023-05-23 10:00",7.02175790096734,"Approved","OW481"
"2023-05-23 11:00",7.02142062563565,"Approved","OW481"
"2023-05-23 12:00",7.02048335030396,"Approved","OW481"
"2023-05-23 13:00",7.02004607497228,"Approved","OW481"
"2023-05-23 14:00",7.02010879964059,"Approved","OW481"
"2023-05-23 15:00",7.0188715243089,"Approved","OW481"
"2023-05-23 16:00",7.01813424897721,"Approved","OW481"
"2023-05-23 17:00",7.01799697364553,"Approved","OW481"
"2023-05-23 18:00",7.01785969831384,"Approved","OW481"
"2023-05-23 19:00",7.01752242298215,"Approved","OW481"